Weather History for Nevers, France

Change the Weather History Date:

Wednesday, March 5, 2014

  Actual Average Record
Temperature  
Mean Temperature 40 °F -  
Max Temperature 55 °F - - ()
Min Temperature 24 °F - - ()
Degree Days  
Heating Degree Days 26    
Moisture  
Dew Point 32 °F    
Average Humidity 78    
Maximum Humidity 100    
Minimum Humidity 32    
Precipitation  
Precipitation 0.00 in - - ()
Sea Level Pressure  
Sea Level Pressure 30.08 in    
Wind  
Wind Speed 2 mph ()    
Max Wind Speed 10 mph    
Max Gust Speed -    
Visibility 5.6 miles    
Events Fog    
T = Trace of Precipitation, MM = Missing Value Source: Averaged Metar Reports

Daily Weather History Graph

Daily Weather History Graph

Search for Another Location

Airport:

Trip Planner

Search our weather history database for the weather conditions in past years. The results will help you decide how hot, cold, wet, or windy it might be!

Date:

Astronomy

Mar. 05, 2014 Rise Set
Actual Time 7:20 AM CET 6:38 PM CET
Civil Twilight 6:49 AM CET 7:09 PM CET
Nautical Twilight 6:14 AM CET 7:44 PM CET
Astronomical Twilight 5:39 AM CET 8:19 PM CET
Moon 9:17 AM CET (3/5) 11:52 PM CET (3/5)
Length of Visible Light 12h 19m
Length of Day
11h 18m
Waxing Crescent, 21% of the Moon is Illuminated
Mar 5
Waxing Crescent
Mar 8
First Quarter
Mar 16
Full
Mar 24
Last Quarter
Mar 30
New

Hourly Weather History & Observations

Time (CET) Temp. Windchill Dew Point Humidity Pressure Visibility Wind Dir Wind Speed Gust Speed Precip Events Conditions
12:00 AM 32 °F - 31 °F 95% 29.90 in 3 mi Calm Calm - -   Clear
12:00 AM 32.0 °F - 32.0 °F 100% 29.86 in 3.1 mi Calm Calm - N/A   Mist
12:30 AM 30.2 °F - 28.4 °F 93% 29.86 in 1.6 mi Calm Calm - N/A   Mist
1:00 AM 30 °F - 29 °F 97% 29.92 in 3 mi Calm Calm - -   Mist
1:00 AM 30.2 °F - 30.2 °F 100% 29.86 in - Calm Calm - N/A   Mist
1:30 AM 30.2 °F - 28.4 °F 93% 29.86 in 2.2 mi Calm Calm - N/A   Mist
2:00 AM 30 °F - 30 °F 98% 29.91 in 2 mi Calm Calm - -   Mist
2:00 AM 30.2 °F - 30.2 °F 100% 29.86 in 1.9 mi Calm Calm - N/A   Mist
2:30 AM 30.2 °F - 30.2 °F 100% 29.86 in - ENE 2.3 mph - N/A   Mist
3:00 AM 29 °F - 28 °F 92% 29.93 in 3 mi Calm Calm - -   Mist
3:00 AM 28.4 °F - 28.4 °F 100% 29.89 in - Calm Calm - N/A   Mist
3:30 AM 28.4 °F - 28.4 °F 100% 29.89 in - Calm Calm - N/A   Mist
4:00 AM 28 °F - 28 °F 99% 29.96 in 3 mi Calm Calm - -   Mist
4:00 AM 28.4 °F - 28.4 °F 100% 29.92 in - Calm Calm - N/A   Mist
4:30 AM 28.4 °F - 26.6 °F 93% 29.92 in 5.0 mi Calm Calm - N/A   Unknown
5:00 AM 28 °F - 27 °F 96% 29.96 in 3 mi Calm Calm - -   Clear
5:00 AM 28.4 °F - 26.6 °F 93% 29.92 in 3.1 mi Calm Calm - N/A   Mist
5:30 AM 26.6 °F - 26.6 °F 100% 29.92 in 2.8 mi Calm Calm - N/A   Mist
6:00 AM 26 °F - 25 °F 92% 30.00 in 0 mi Calm Calm - - Fog Fog
6:00 AM 26.6 °F - 24.8 °F 93% 29.95 in 0.2 mi Calm Calm - N/A Fog Light Freezing Fog
6:30 AM 26.6 °F - 24.8 °F 93% 29.98 in 0.5 mi Calm Calm - N/A Fog Light Freezing Fog
7:00 AM 26 °F - 25 °F 93% 30.05 in 0 mi Calm Calm - - Fog Fog
7:00 AM 24.8 °F - 24.8 °F 100% 30.01 in 0.2 mi Calm Calm - N/A Fog Light Freezing Fog
7:30 AM 26.6 °F - 26.6 °F 100% 30.01 in 0.2 mi Calm Calm - N/A Fog Light Freezing Fog
8:00 AM 27 °F - 26 °F 96% 30.07 in 0 mi Calm Calm - - Fog Heavy Fog
8:00 AM 26.6 °F - 26.6 °F 100% 30.01 in 0.2 mi Calm Calm - N/A Fog Light Freezing Fog
8:30 AM 30.2 °F - 30.2 °F 100% 30.04 in 0.5 mi Calm Calm - N/A Fog Light Freezing Fog
9:00 AM 34 °F - 34 °F 98% 30.10 in 3 mi Calm Calm - -   Mist
9:00 AM 33.8 °F - 33.8 °F 100% 30.06 in - Calm Calm - N/A   Mist
9:30 AM 35.6 °F - 33.8 °F 93% 30.06 in 5.6 mi Calm Calm - N/A   Unknown
10:00 AM 39 °F - 37 °F 88% 30.12 in 8 mi Calm Calm - -   Clear
10:00 AM 39.2 °F - 37.4 °F 93% 30.09 in 6.2 mi Calm Calm - N/A   Unknown
10:30 AM 44.6 °F - 39.2 °F 81% 30.09 in 6.2 mi Variable 2.3 mph - N/A   Unknown
11:00 AM 47 °F - 40 °F 70% 30.12 in 11 mi WNW 4.6 mph - -   Clear
11:00 AM 46.4 °F 44.3 °F 41.0 °F 81% 30.09 in 6.2 mi WNW 4.6 mph - N/A   Unknown
11:30 AM 50.0 °F - 39.2 °F 66% 30.09 in 6.2 mi NNW 3.5 mph - N/A   Unknown
12:00 PM 52 °F - 38 °F 48% 30.12 in 12 mi NNE 6.9 mph - -   Clear
12:00 PM 51.8 °F - 37.4 °F 58% 30.09 in 6.2 mi NNE 6.9 mph - N/A   Partly Cloudy
12:30 PM 51.8 °F - 33.8 °F 50% 30.09 in 6.2 mi NNE 9.2 mph - N/A   Unknown
1:00 PM 54 °F - 34 °F 35% 30.13 in 12 mi NNE 10.4 mph - -   Clear
1:00 PM 53.6 °F - 33.8 °F 47% 30.09 in 6.2 mi NNE 10.4 mph - N/A   Partly Cloudy
1:30 PM 55.4 °F - 35.6 °F 47% 30.12 in 6.2 mi NE 9.2 mph - N/A   Mostly Cloudy
2:00 PM 54 °F - 34 °F 35% 30.14 in 12 mi North 9.2 mph - -   Clear
2:00 PM 53.6 °F - 33.8 °F 47% 30.12 in 6.2 mi North 9.2 mph - N/A   Scattered Clouds
2:30 PM 51.8 °F - 32.0 °F 47% 30.12 in 6.2 mi North 10.4 mph - N/A   Unknown
3:00 PM 54 °F - 33 °F 32% 30.14 in 12 mi NNE 10.4 mph - -   Clear
3:00 PM 53.6 °F - 33.8 °F 47% 30.12 in 6.2 mi NNE 10.4 mph - N/A   Unknown
3:30 PM 53.6 °F - 32.0 °F 44% 30.12 in 6.2 mi North 10.4 mph - N/A   Unknown
4:00 PM 53 °F - 35 °F 38% 30.16 in 12 mi North 10.4 mph - -   Clear
4:00 PM 53.6 °F - 35.6 °F 51% 30.15 in 6.2 mi North 10.4 mph - N/A   Unknown
4:30 PM 51.8 °F - 32.0 °F 47% 30.15 in 6.2 mi North 8.1 mph - N/A   Unknown
5:00 PM 53 °F - 33 °F 34% 30.18 in 12 mi North 6.9 mph - -   Clear
5:00 PM 53.6 °F - 32.0 °F 44% 30.15 in 6.2 mi North 6.9 mph - N/A   Unknown
5:30 PM 51.8 °F - 32.0 °F 47% 30.18 in 6.2 mi NNE 8.1 mph - N/A   Unknown
6:00 PM 50 °F - 33 °F 40% 30.21 in 12 mi North 5.8 mph - -   Clear
6:00 PM 50.0 °F - 33.8 °F 54% 30.18 in 6.2 mi North 5.8 mph - N/A   Unknown
6:30 PM 46.4 °F 45.2 °F 33.8 °F 62% 30.18 in 6.2 mi North 3.5 mph - N/A   Unknown
7:00 PM 43 °F - 33 °F 58% 30.25 in 12 mi North 2.3 mph - -   Clear
7:00 PM 42.8 °F - 33.8 °F 70% 30.21 in 6.2 mi North 2.3 mph - N/A   Unknown
7:30 PM 39.2 °F - 32.0 °F 75% 30.24 in 6.2 mi Calm Calm - N/A   Unknown
8:00 PM 38 °F - 33 °F 77% 30.27 in 12 mi Calm Calm - -   Clear
8:00 PM 37.4 °F - 33.8 °F 87% 30.24 in 6.2 mi Calm Calm - N/A   Partly Cloudy
8:30 PM 37.4 °F - 30.2 °F 75% 30.24 in 6.2 mi Calm Calm - N/A   Unknown
9:00 PM 35 °F - 31 °F 81% 30.29 in 9 mi Calm Calm - -   Clear
9:00 PM 35.6 °F - 32.0 °F 87% 30.24 in 6.2 mi Calm Calm - N/A   Unknown
9:30 PM 35.6 °F - 32.0 °F 87% 30.24 in 6.2 mi Calm Calm - N/A   Unknown
10:00 PM 34 °F - 30 °F 81% 30.30 in 7 mi Calm Calm - -   Clear
10:00 PM 33.8 °F - 30.2 °F 87% 30.27 in 6.2 mi Calm Calm - N/A   Unknown
10:30 PM 32.0 °F - 30.2 °F 93% 30.27 in 6.2 mi Calm Calm - N/A   Unknown
11:00 PM 33 °F - 31 °F 92% 30.32 in 6 mi Calm Calm - -   Clear
11:00 PM 32.0 °F - 32.0 °F 100% 30.27 in 6.2 mi Calm Calm - N/A   Unknown
11:30 PM 32.0 °F - 30.2 °F 93% 30.27 in 6.2 mi SSE 1.2 mph - N/A   Unknown